Location: Praha
(50.0830°N, 14.4670°E)
Time: 11:36:57
(UTC+02:00)

ISS - Pass Details

Date: 03 May 2025
Orbit: 416 x 419 km, 51.6° (Epoch: 18 May)

Event Time Altitude Azimuth Distance (km) Brightness Sun altitude
Exits shadow 02:14:48 39° 77° (ENE) 643 -2.6 -22.1°
Drops below altitude 10° 02:17:02 10° 75° (ENE) 1,496 -0.5 -22.0°
Sets 02:19:08 0° 74° (ENE) 2,362 0.6 -21.9°
